Cosmos 1943 - Orbit

View from above orbital plane
View from above orbital plane
View from above satellite
View from above satellite

Ground track
Ground track

The orbit data is extracted from the following two-line orbital elements,

1 19119U 88039A   13140.50738872 -.00000205  00000-0 -81568-4 0  8730
2 19119 071.0039 347.4843 0010896 172.2687 198.2481 14.14842712291518
Epoch (UTC): 20 May 2013 12:10:38
Eccentricity: 0.0010896
inclination: 71.0039°
perigee height: 835 km
apogee height: 851 km
right ascension of ascending node: 347.4843°
argument of perigee: 172.2687°
revolutions per day: 14.14842712
mean anomaly at epoch: 198.2481°
orbit number at epoch: 29151

The dashed part of the orbit path shows where the satellite is in the earth's shadow,  

Developed and maintained by Chris Peat, Heavens-Above GmbH. Please read the updated FAQ before sending e-mail. Imprint. DLR